Fran Budimir

Recruteur - Imotski
3 Déc 2028
Dimanche
Processus

Personnalité

Adaptabilité (3) Ambition (4) Controverse (12) Loyauté (18) Pression (1) Professionnalisme (3) Sportivité (10) Tempérament (1)

Profil

Style d'entraînement Démocratique
Diplôme National B
Détermination 7
Gestion des joueurs 2
Motivation 8
Discipline 2
Satisfaction professionnelle
100%
Fatigue
0%
Rôle Recruteur
Salaire 7.1K p/s
Contrat 14.03.2029

Performance

Comportement Bon
Efficacité de l'entraînement
28%
Développement des joueurs
25%
Prévention des blessures
25%
Mise en place tactique
35%

Événements récents

A participé à une réunion de recrutement maintenant
A évalué un joueur maintenant
A évalué un joueur maintenant
A évalué un joueur 7j
A évalué un joueur 7j
A évalué un joueur 7j
A évalué un joueur 7j
A évalué un joueur 7j

Suivi en cours

95
Joueur Club Statut Capacité Confiance Observé Dernière observation Dernier vote
Gianluca Pugliese Güemes Actif 109 / 125 40% 2 02.12.2028 -
Lautaro Disanto Defensores Unidos Actif 103 / 124 40% 3 02.12.2028 -
Elías Ayala Madryn Actif 118 / 110 40% 3 01.12.2028 -
Franco Ayunta Temperley Actif 109 / 104 40% 2 01.12.2028 -
Ismail Mukhtar El-Kanemi Warriors Actif 80 / 73 40% 2 29.11.2028 -
Maximiliano Rueda Patronato Actif 101 / 106 40% 1 29.11.2028 -
Marco Miori Alvarado Actif 120 / 104 40% 2 28.11.2028 -
Franco Bustamante Almagro Actif 111 / 90 40% 1 28.11.2028 -
Adeshina Gata Kwara United Actif 86 / 83 40% 1 26.11.2028 -
Antonio Napolitano Agropecuario Argentino Actif 99 / 128 40% 6 25.11.2028 -
Nazareno Petrecca Nueva Chicago Actif 94 / 117 40% 1 25.11.2028 -
Johan Campaña Patriotas Actif 113 / 101 40% 4 23.11.2028 -
Kabiru Abdullahi Barau Actif 80 / 83 40% 1 22.11.2028 -
Matteo Trombini Arsenal Actif 109 / 120 40% 1 22.11.2028 -
Matías Sosa Arsenal Actif 106 / 104 40% 1 21.11.2028 -
Santino Sciacqua Colón Actif 111 / 118 40% 1 21.11.2028 -
Damián Adín San Miguel Actif 124 / 96 40% 1 20.11.2028 -
Sebastián de Marco Fenix Actif 111 / 120 40% 2 19.11.2028 -
Santiago Gutiérrez Alvarado Actif 120 / 104 40% 3 19.11.2028 -
Emiliano Purita All Boys Actif 112 / 92 40% 3 17.11.2028 -
Dylan Cabral Arsenal Actif 111 / 124 40% 3 16.11.2028 -
Diego Gaitán Maipú Actif 127 / 126 40% 1 16.11.2028 -
Juan David Rueda Alianza Petrolera Actif 117 / 105 40% 3 15.11.2028 -
Facundo Taborda Racing Actif 96 / 103 40% 1 15.11.2028 -
Renzo Reynaga Patronato Actif 94 / 117 40% 2 13.11.2028 -
Santiago Moyano Central Córdoba SdE Actif 111 / 109 40% 3 10.11.2028 -
Musa Afeez Kwara United Actif 94 / 100 40% 1 10.11.2028 -
David Eke Enyimba Actif 73 / 91 40% 2 09.11.2028 -
Jhon Solís Fortaleza CEIF Actif 98 / 103 40% 2 09.11.2028 -
Naziru Auwalu Wikki Tourists Actif 91 / 102 40% 2 06.11.2028 -
Santiago Camacho Estudiantes Actif 89 / 107 40% 2 06.11.2028 -
Miguel Ceccotti Güemes Actif 125 / 95 40% 2 05.11.2028 -
Luis Sandoval Independiente Medellin Actif 120 / 121 40% 1 04.11.2028 -
Jerónimo Porto Lapegüe San Telmo Actif 123 / 109 40% 2 02.11.2028 -
Siro Rosané Estudiantes Actif 118 / 133 40% 1 02.11.2028 -
Facundo Villarreal Los Andes Actif 100 / 103 40% 2 30.10.2028 -
Francisco Funes Los Andes Actif 95 / 95 40% 1 29.10.2028 -
Gustavo Viera Cerro Largo Actif 117 / 90 40% 1 26.10.2028 -
Santiago Kubiszyn Morón Actif 102 / 99 40% 1 25.10.2028 -
Agustín Pereira Albion Actif 125 / 130 40% 1 25.10.2028 -
Agustín Ojeda Chaco For Ever Actif 98 / 119 40% 1 21.10.2028 -
Pedro Sanz Central Norte Actif 99 / 119 40% 2 20.10.2028 -
Mafeng Pam Plateau United Actif 76 / 100 40% 1 20.10.2028 -
Yeferson Rodallega Envigado Actif 132 / 99 40% 2 18.10.2028 -
Alan Olinick Racing Actif 100 / 129 40% 2 17.10.2028 -
Camilo Machado Madryn Actif 115 / 101 40% 1 17.10.2028 -
Gideon Manaseh Ikorodu City Actif 84 / 92 40% 1 15.10.2028 -
David Veliz Güemes Actif 104 / 101 40% 1 14.10.2028 -
Yeferson Contreras Estudiantes de Caracas Actif 101 / 97 40% 1 14.10.2028 -
Álvaro Meléndez Real Cartagena Actif 100 / 99 40% 2 12.10.2028 -
Gerónimo Tomasetti Temperley Actif 105 / 91 40% 1 12.10.2028 -
Estanislao Jara Madryn Actif 97 / 107 40% 2 10.10.2028 -
Alao Dabani Nasarawa United Actif 92 / 97 40% 1 10.10.2028 -
José Barreto Quilmes Actif 123 / 98 40% 1 07.10.2028 -
Samuel Bello Patriotas Actif 86 / 111 40% 1 05.10.2028 -
Shuaibu Ibrahim Wikki Tourists Actif 102 / 105 40% 1 04.10.2028 -
Lautaro Díaz San Martín Actif 97 / 99 40% 1 03.10.2028 -
Tobías Macies Almagro Actif 91 / 111 40% 1 03.10.2028 -
Marcos Enrique Tristán Suárez Actif 111 / 131 40% 1 02.10.2028 -
Dehinde Ibrahim Bayelsa United Actif 97 / 85 40% 1 02.10.2028 -
Franco Malagueño Colegiales Actif 105 / 117 40% 1 21.08.2028 -
Paolo Dorini Estudiantes de Merida Actif 86 / 94 40% 1 20.08.2028 -
Seth Mayi Warri Wolves Actif 87 / 99 40% 1 18.08.2028 -
Enzo Silcan Almagro Actif 97 / 129 40% 1 18.08.2028 -
Ariel Castellano Alvarado Actif 98 / 111 40% 1 17.08.2028 -
Salman Abubakar Mosta Actif 100 / 87 40% 1 16.08.2028 -
Bruno Pérez Madryn Actif 120 / 109 40% 1 13.08.2028 -
Richmond Lamptey Ashanti Gold Actif 115 / 90 40% 2 10.08.2028 -
Fernando Duré Estudiantes Actif 95 / 111 40% 1 07.08.2028 -
Franco Zicarelli Colegiales Actif 107 / 92 40% 1 07.08.2028 -
Will Hondermarck Great Olympics Actif 85 / 111 40% 1 31.07.2028 -
Kehinde Lawal Bayelsa United Actif 84 / 94 40% 1 24.07.2028 -
Manuele Malotti Livorno Actif 93 / 116 40% 1 24.07.2028 -
Yevhen Smyrnyi Kudrivka Actif 96 / 111 40% 2 04.07.2028 -
Jaiminho Leiria Actif 99 / 122 40% 1 04.07.2028 -
Daniel Valdelamar Yenisey Actif 108 / 97 40% 1 27.06.2028 -
Frazer Blake-Tracy Newport County Actif 89 / 98 40% 1 22.06.2028 -
Jhon Murillo Jaguares Actif 124 / 109 40% 1 22.06.2028 -
Thomas Agyepong Berekum Chelsea Actif 103 / 80 40% 1 21.06.2028 -
Yegor Noskov SKA Khabarovsk Actif 113 / 111 40% 1 21.06.2028 -
Ishmael Addo Heart of Lions Actif 78 / 98 40% 1 19.06.2028 -
Luka Bilandžić Rudes Actif 60 / 76 51% 1 12.06.2028 -
Saber Hraiech Trapani Actif 95 / 99 40% 1 07.06.2028 -
Antonio Salado Ospitaletto Actif 100 / 107 40% 1 07.06.2028 -
Ilja Zhigulev Chernomorets Actif 97 / 96 40% 1 04.06.2028 -
Juan Pablo Ramírez Chernomorets Actif 93 / 99 40% 1 02.06.2028 -
Abeiku Partey Liberty Professionals Actif 95 / 97 40% 1 02.06.2028 -
Robert Murić Floriana Actif 102 / 103 40% 1 02.06.2028 -
Kristijan Simunovic Cibalia Actif 73 / 73 51% 1 24.01.2028 -
Sime Srna Cibalia Actif 74 / 100 51% 1 01.01.2028 -
Bartol Kunert Segesta Actif 83 / 89 51% 1 01.06.2027 -
Renato Solís Sporting Cristal Actif 121 / 142 40% 1 04.08.2026 -
John Amah Plateau United Actif 95 / 106 40% 1 04.08.2026 -
Thomas Carrique Andorra Actif 111 / 104 40% 1 01.08.2026 -
Rodrigo Saracho San Marcos de Arica Actif 130 / 124 40% 1 01.08.2026 -